Flag for Switzerland Weather past 2 weeks in Aarau, Aargau, Switzerland

Now
75 °F

Mild.


Feels Like: 77 °F
Forecast: 67 / 95 °F
Wind: 5 mph from Northwest

Location: Wynau

Current Time: Jul 6, 2015 at 3:33:20 AM

Latest Report: Jul 6, 2015 at 2:00 AM


Visibility: N/A

Pressure: 30.08 "Hg

Humidity: 71%

Dew point: 65 °F

Location of AarauLocation

Historic Weather in Aarau — Graph

°F

Aarau temperature yesterday

Maximum temperature yesterday: 96 °F (at 4:00 PM)
Minimum temperature yesterday: 65 °F (at 6:00 AM)
Average temperature yesterday: 80 °F

Past Weeks' High & Low Weather Summary

 TemperatureHumidityPressure
High96 °F (Jul 5, 4:00 PM)100% (Jun 22, 5:00 AM)30.24 "Hg (Jun 22, 5:00 AM)
Low45 °F (Jun 24, 6:00 AM)28% (Jun 30, 6:00 PM)29.74 "Hg (Jun 22, 9:00 PM)
Average69 °F67%30.09 "Hg
* Reported Jun 21 2:00 AM — Jul 6 2:00 AM, Aarau, Weather by CustomWeather, © 2015

Note: Actual official high and low records may vary slightly from our data, if they occured in-between our weather recording intervals... More about our weather records

Advertising

Aarau weather history for previous 24 hours

 ConditionsComfort  
Time TempWeatherWind HumidityBarometerVisibility
2:00 AM
Mon, Jul 6
75 °FMild.5 mph71%30.08 "HgN/A
1:00 AM82 °FWarm.5 mph52%30.03 "HgN/A
12:00 AM83 °FWarm.3 mph51%30.00 "HgN/A
10:00 PM
Sun, Jul 5
80 °FWarm.2 mph63%29.96 "HgN/A
9:00 PM82 °FWarm.1 mph61%29.93 "HgN/A
8:00 PM86 °FWarm.1 mph60%29.88 "HgN/A
7:00 PM91 °FHot.3 mph46%29.87 "HgN/A
6:00 PM89 °FHot.1 mph51%29.89 "HgN/A
4:00 PM96 °FExtremely hot.2 mph29%29.88 "HgN/A
3:00 PM94 °FExtremely hot.2 mph38%29.91 "HgN/A
2:00 PM91 °FHot.3 mph38%29.95 "HgN/A
1:00 PM90 °FHot.5 mph46%29.97 "HgN/A
12:00 PM87 °FWarm.3 mph45%29.99 "HgN/A
11:00 AM84 °FWarm.3 mph50%30.00 "HgN/A
10:00 AM80 °FWarm.2 mph62%30.03 "HgN/A
9:00 AM76 °FMild.2 mph70%30.06 "HgN/A
8:00 AM71 °FMild.1 mph82%30.08 "HgN/A
7:00 AM67 °FMild.1 mph92%30.09 "HgN/A
6:00 AM65 °FMild.1 mph96%30.09 "HgN/A
4:00 AM67 °FMild.No wind96%30.09 "HgN/A
3:00 AM67 °FMild.1 mph92%30.09 "HgN/A
Weather by CustomWeather, © 2015

See weather overviewHow to use our weather pages